Home > Weather > Portsmouth > Past weeks

Flag for USA Past Weather in Portsmouth, Virginia, USA — Yesterday and Last 2 Weeks

Now
86 °F

Passing clouds.


Feels Like: 94 °F
Forecast: 79 / 90 °F
Wind: 7 mph from Southwest

Location: Norfolk Naval Air Station

Current Time: Jul 29, 2016 at 2:01:58 AM

Latest Report: Jul 29, 2016 at 12:59 AM


Visibility: 10 mi

Pressure: 29.83 "Hg

Humidity: 67%

Dew Point: 74 °F

Location of PortsmouthLocation

Past Weather in Portsmouth — Graph

°F

Portsmouth Temperature Yesterday

Maximum temperature yesterday: 95 °F (at 12:59 PM)
Minimum temperature yesterday: 81 °F (at 2:59 AM)
Average temperature yesterday: 88 °F

High & Low Weather Summary for the Past Weeks

 TemperatureHumidityPressure
High98 °F (Jul 24, 2:59 PM)97% (Jul 21, 5:59 AM)30.21 "Hg (Jul 21, 5:59 AM)
Low70 °F (Jul 20, 12:59 AM)42% (Jul 25, 4:59 PM)29.80 "Hg (Jul 28, 5:59 PM)
Average84 °F70%30.03 "Hg
* Reported Jul 14 12:59 AM — Jul 29 12:59 AM, Portsmouth, Weather by CustomWeather, © 2016

Note: Actual official high and low records may vary slightly from our data, if they occured in-between our weather recording intervals... More about our weather records

Advertising

Portsmouth Weather History for the Previous 24 Hours

Scroll right to see more
 ConditionsComfort  
Time TempWeatherWind HumidityBarometerVisibility
12:59 AM
Fri, Jul 29
86 °FPassing clouds.7 mph67%29.83 "Hg10 mi
11:59 PM
Thu, Jul 28
87 °FPassing clouds.7 mph67%29.84 "Hg10 mi
10:59 PM88 °FPassing clouds.6 mph67%29.80 "Hg10 mi
9:59 PM86 °FPartly cloudy.5 mph72%29.82 "Hg10 mi
8:59 PM87 °FPartly sunny.6 mph67%29.82 "Hg10 mi
7:59 PM89 °FBroken clouds.6 mph65%29.83 "Hg10 mi
6:59 PM88 °FPartly sunny.9 mph67%29.80 "Hg9 mi
5:59 PM89 °FScattered clouds.7 mph68%29.80 "Hg8 mi
4:59 PM91 °FScattered clouds.6 mph60%29.81 "Hg8 mi
3:59 PM94 °FBroken clouds.6 mph58%29.81 "Hg8 mi
2:59 PM95 °FScattered clouds.7 mph58%29.84 "Hg8 mi
1:59 PM93 °FPassing clouds.7 mph62%29.87 "Hg7 mi
12:59 PM95 °FScattered clouds.6 mph58%29.89 "Hg7 mi
11:59 AM94 °FScattered clouds.5 mph58%29.90 "Hg7 mi
10:59 AM90 °FScattered clouds.6 mph63%29.91 "Hg7 mi
9:59 AM89 °FScattered clouds.5 mph70%29.92 "Hg8 mi
8:59 AM87 °FScattered clouds.No wind72%29.93 "Hg8 mi
7:59 AM84 °FScattered clouds.No wind80%29.93 "Hg10 mi
6:59 AM82 °FPassing clouds.5 mph82%29.93 "Hg10 mi
5:59 AM81 °FPassing clouds.5 mph88%29.92 "Hg7 mi
4:59 AM81 °FPassing clouds.3 mph85%29.90 "Hg8 mi
3:59 AM82 °FPassing clouds.5 mph88%29.91 "Hg7 mi
2:59 AM81 °FPartly cloudy.No wind85%29.91 "Hg8 mi
Weather by CustomWeather, © 2016

See weather overviewHow to use our weather pages